Location: Peyton Hall Observatory
(40.3466°N, 74.6516°W)
Time: 10:00:25
(UTC-04:00)

ISS - All Passes

Search period start: 23 June 2018 00:00
Search period end: 03 July 2018 00:00
Orbit: 403 x 408 km, 51.6° (Epoch: 24 June)

Date Brightness Start Highest point End Pass type
(mag) Time Alt. Az. Time Alt. Az. Time Alt. Az.
23 Jun - 08:11:42 10° SSW 08:14:48 40° SE 08:17:56 10° ENE daylight
23 Jun - 09:48:30 10° W 09:51:23 27° NNW 09:54:16 10° NE daylight
23 Jun - 11:27:18 10° NNW 11:28:44 12° N 11:30:11 10° NNE daylight
23 Jun - 13:04:17 10° NNW 13:06:18 15° NNE 13:08:20 10° NE daylight
23 Jun - 14:40:08 10° NW 14:43:22 54° NNE 14:46:36 10° ESE daylight
23 Jun - 16:17:28 10° W 16:19:34 16° SW 16:21:39 10° S daylight
24 Jun - 07:20:22 10° S 07:22:55 21° SE 07:25:28 10° E daylight
24 Jun - 08:56:03 10° WSW 08:59:12 43° NNW 09:02:23 10° NE daylight
24 Jun - 10:34:31 10° NW 10:36:22 14° NNW 10:38:13 10° NNE daylight
24 Jun - 12:12:22 10° NNW 12:13:57 13° N 12:15:32 10° NE daylight
24 Jun - 13:48:13 10° NW 13:51:14 32° NNE 13:54:13 10° E daylight
24 Jun - 15:24:45 10° WNW 15:27:41 30° SW 15:30:36 10° SSE daylight
25 Jun - 06:30:11 10° SE 06:31:04 11° SE 06:31:56 10° ESE daylight
25 Jun - 08:03:49 10° SW 08:07:06 79° NW 08:10:24 10° NE daylight
25 Jun - 09:41:43 10° WNW 09:44:02 17° NNW 09:46:20 10° NNE daylight
25 Jun - 11:20:15 10° NNW 11:21:33 12° N 11:22:51 10° NNE daylight
25 Jun - 12:56:21 10° NNW 12:59:00 22° NNE 13:01:38 10° ENE daylight
25 Jun - 14:32:28 10° WNW 14:35:43 61° SW 14:38:57 10° SE daylight
26 Jun - 07:11:52 10° SW 07:15:04 52° SE 07:18:17 10° ENE daylight
26 Jun - 08:48:59 10° W 08:51:44 24° NNW 08:54:29 10° NNE daylight
26 Jun - 10:27:48 10° NNW 10:29:08 12° N 10:30:29 10° NNE daylight
26 Jun - 12:04:29 10° NNW 12:06:41 16° NNE 12:08:53 10° ENE daylight
26 Jun - 13:40:23 10° NW 13:43:40 69° NE 13:46:56 10° ESE daylight
26 Jun - 15:18:16 10° WSW 15:19:45 12° SW 15:21:13 10° SSW daylight
27 Jun - 06:20:17 10° SSW 06:23:05 26° SE 06:25:55 10° ENE daylight
27 Jun - 07:56:26 10° W 07:59:30 35° NNW 08:02:34 10° NE daylight
27 Jun - 09:35:03 10° NW 09:36:43 13° N 09:38:24 10° NNE daylight
27 Jun - 11:12:34 10° NNW 11:14:19 13° N 11:16:03 10° NE daylight
27 Jun - 12:48:23 10° NW 12:51:30 38° NNE 12:54:37 10° E daylight
27 Jun - 14:25:10 10° WNW 14:27:51 24° SW 14:30:33 10° S daylight
28 Jun - 05:29:24 10° SSE 05:31:11 14° SE 05:32:59 10° E daylight
28 Jun - 07:04:03 10° WSW 07:07:19 62° NW 07:10:36 10° NE daylight
28 Jun - 08:42:11 10° WNW 08:44:20 16° NNW 08:46:28 10° NNE daylight
28 Jun - 10:20:31 10° NNW 10:21:53 12° N 10:23:16 10° NNE daylight
28 Jun - 11:56:28 10° NNW 11:59:16 25° NNE 12:02:04 10° E daylight
28 Jun - 13:32:43 10° WNW 13:35:53 46° SW 13:39:03 10° SSE daylight
29 Jun - 06:11:57 10° SW 06:15:13 68° SE 06:18:30 10° ENE daylight
29 Jun - 07:49:23 10° WNW 07:51:58 21° NNW 07:54:34 10° NNE daylight
29 Jun - 09:28:09 10° NNW 09:29:26 12° N 09:30:43 10° NNE daylight
29 Jun - 11:04:34 10° NNW 11:06:57 18° NNE 11:09:19 10° ENE daylight
29 Jun - 12:40:31 10° NW 12:43:49 87° NNE 12:47:06 10° SE daylight
30 Jun - 05:20:10 10° SSW 05:23:10 33° SE 05:26:11 10° ENE daylight
30 Jun - 06:56:43 10° W 06:59:40 30° NNW 07:02:38 10° NE daylight
30 Jun - 08:35:26 10° NW 08:36:58 13° N 08:38:30 10° NNE daylight
30 Jun - 10:12:38 10° NNW 10:14:33 14° NNE 10:16:28 10° NE daylight
30 Jun - 11:48:28 10° NW 11:51:40 47° NNE 11:54:51 10° ESE daylight
30 Jun - 13:25:31 10° W 13:27:55 19° SW 13:30:18 10° S daylight
01 Jul - 04:28:55 10° S 04:31:12 18° SE 04:33:30 10° E visible
01 Jul - 06:04:13 10° WSW 06:07:26 49° NNW 06:10:39 10° NE daylight
01 Jul - 07:42:34 10° NW 07:44:31 15° NNW 07:46:29 10° NNE daylight
01 Jul - 09:20:36 10° NNW 09:22:06 12° N 09:23:35 10° NE daylight
01 Jul - 10:56:29 10° NW 10:59:25 29° NNE 11:02:20 10° E daylight
01 Jul - 12:32:53 10° WNW 12:35:56 36° SW 12:38:58 10° SSE daylight
02 Jul - 05:11:58 10° SW 05:15:15 87° SE 05:18:33 10° NE daylight
02 Jul - 06:49:41 10° WNW 06:52:06 19° NNW 06:54:32 10° NNE daylight
02 Jul - 08:28:20 10° NNW 08:29:37 12° N 08:30:53 10° NNE daylight
02 Jul - 10:04:32 10° NNW 10:07:05 20° NNE 10:09:37 10° ENE daylight
02 Jul - 11:40:35 10° WNW 11:43:52 73° SW 11:47:08 10° SE daylight
